Lid_Strength_Index
4 5 4 4 5 5 5 5 5 5 5 5 5 6 6 5 6 11 13 11 9 6 6 8 10 11 11 10 7 6 10 12 11 10 9 10 10 11 12 12 12 10 11 10 9
4 4 4 4 4 4 4 5 5 5 5 5 5 6 6 5 11 13 10 8 8 7 9 11 12 12 12 10 9 9 12 11 10 10 9 10 10 11 13 12 12 11 11 9 10
3 3 3 4 4 4 3 4 4 4 5 6 6 6 6 6 13 13 9 8 8 8 10 10 9 10 11 10 10 10 11 10 10 10 10 9 10 11 12 12 10 11 11 10 10
4 4 3 3 3 3 4 3 3 3 4 5 6 6 6 10 16 13 9 9 9 11 11 11 11 11 11 12 10 12 9 11 10 11 11 10 11 12 12 12 12 12 9 11 11
4 4 4 3 3 3 3 4 4 4 4 4 4 6 9 14 15 12 8 10 11 12 13 12 12 11 12 12 11 12 11 11 12 12 12 12 13 12 12 10 10 12 11 11 11
4 4 4 4 3 3 3 2 3 4 4 4 4 4 10 15 11 11 12 12 12 13 12 12 12 11 12 12 12 12 11 12 12 12 12 13 13 13 12 10 10 12 12 12 11
4 4 4 4 4 3 3 3 3 4 4 4 4 8 11 12 10 10 10 10 11 12 12 13 13 11 11 12 11 11 12 12 13 12 13 14 14 14 12 13 13 11 12 12 11
3 3 4 4 4 3 3 3 3 4 4 4 4 10 12 10 10 10 10 10 9 10 11 12 12 13 12 12 12 13 14 15 13 13 13 15 15 12 12 12 13 13 13 12 12
2 3 3 3 3 4 4 4 4 4 5 4 8 10 12 9 10 10 10 10 9 9 9 10 11 12 14 15 14 14 17 16 16 14 14 15 15 13 13 13 14 14 13 13 13
2 3 3 3 3 4 5 5 4 5 6 9 10 11 12 12 10 10 10 10 10 10 9 10 11 14 14 14 17 17 17 15 16 15 15 16 16 14 13 13 14 13 13 13 12
2 2 3 3 4 5 6 6 9 9 8 10 11 11 11 10 9 10 9 10 10 11 13 13 15 17 15 15 16 16 16 16 16 15 16 16 16 14 13 13 14 14 13 13 12
1 2 2 3 4 5 5 10 11 11 14 10 11 11 11 10 12 11 9 12 12 14 14 14 17 15 14 14 15 16 17 17 16 15 16 16 15 13 12 12 12 12 13 13 13
1 1 2 2 3 5 9 10 8 9 14 12 11 11 11 11 12 12 10 11 13 14 14 15 15 13 14 15 16 16 17 17 17 15 16 17 17 15 13 12 12 11 12 12 12
1 1 2 3 4 6 9 8 7 7 15 13 15 13 12 11 13 10 10 11 13 14 14 15 15 14 16 16 15 17 16 16 16 17 19 17 21 15 13 14 14 13 13 13 13
2 1 2 3 5 7 8 7 7 8 19 13 14 11 12 13 13 13 11 12 14 15 15 16 16 17 16 16 15 17 15 16 17 18 19 19 21 17 14 14 13 13 13 13 13
3 3 2 2 3 6 6 6 8 13 20 16 13 14 14 14 14 13 13 12 12 14 15 17 15 15 16 15 15 15 16 17 17 18 22 18 19 18 15 14 15 14 13 13 13
5 4 3 5 5 6 6 7 14 17 13 15 16 15 15 15 15 14 15 17 18 21 18 17 18 16 15 17 16 17 19 19 21 23 22 20 21 18 14 14 14 14 14 14 13
6 5 4 5 6 7 7 11 17 14 15 13 15 15 17 16 16 16 16 17 15 17 18 20 20 18 16 17 18 18 18 19 22 22 21 21 22 17 14 14 13 13 13 13 14
6 6 7 6 6 8 11 15 15 14 11 14 15 17 16 17 17 16 17 17 14 15 17 18 20 19 17 17 17 19 21 18 20 23 23 20 18 14 13 14 14 14 14 14 13
8 8 8 6 8 9 13 14 13 10 12 14 17 15 17 18 18 17 17 15 16 15 15 15 20 19 19 18 18 19 17 21 20 25 25 19 20 18 16 14 13 13 13 13 13
7 10 7 5 7 12 14 14 13 10 11 13 14 15 16 17 17 17 16 15 14 16 15 16 16 20 19 20 19 20 21 20 19 19 20 21 20 15 14 13 13 12 12 12 12
8 12 7 7 12 12 12 12 11 11 12 13 13 13 14 16 17 16 16 14 13 15 18 16 17 21 20 18 18 19 18 17 19 20 20 20 21 14 13 12 12 12 11 11 11
10 9 7 7 13 12 12 13 11 11 11 13 13 12 10 12 16 16 15 13 13 15 16 16 19 22 21 21 20 22 18 17 17 18 21 22 20 14 13 14 13 12 12 11 11
10 14 10 11 10 11 11 11 12 11 10 10 12 13 14 14 12 14 15 15 15 15 13 13 17 19 18 18 20 24 21 19 20 22 19 18 17 14 14 14 13 12 12 11 12
9 13 10 13 13 12 11 11 12 12 11 11 12 11 12 14 14 14 13 15 15 14 15 16 19 20 19 17 19 19 22 20 20 18 20 17 17 14 13 12 11 12 12 12 12
10 10 10 11 12 12 11 13 12 12 10 12 12 10 10 12 12 13 13 14 15 16 16 16 18 20 21 18 18 21 19 19 18 18 18 17 17 14 13 13 12 11 11 11 11
6 6 9 11 13 13 14 13 12 10 9 9 9 10 11 10 8 7 7 8 11 14 17 17 18 19 20 17 19 21 20 19 18 17 17 19 16 13 13 13 12 11 11 11 11